Ord, NE

10:51 AM CDT on June 26, 2017 (GMT -0500)
Sharp

Weather History for KODX - March, 2012

Change the Weather History Date:

Tuesday, March 13, 2012

  Actual Average Record
Temperature  
Mean Temperature 56 °F 36 °F  
Max Temperature 80 °F 50 °F 80 °F (2012)
Min Temperature 31 °F 23 °F 12 °F (1999)
Degree Days  
Heating Degree Days 9 28  
Month to date heating degree days 287 402  
Since 1 July heating degree days 5072 5419  
Cooling Degree Days 0 0  
Month to date cooling degree days 0 0  
Year to date cooling degree days 0 0  
Growing Degree Days 4 (Base 50)    
Moisture  
Dew Point 35 °F    
Average Humidity 60    
Maximum Humidity 100    
Minimum Humidity 19    
Precipitation  
Precipitation 0.00 in 0.03 in 1.00 in (1913)
Month to date precipitation 0.33 0.28  
Year to date precipitation 1.76 1.09  
Sea Level Pressure  
Sea Level Pressure 29.85 in    
Wind  
Wind Speed 7 mph (South)    
Max Wind Speed 28 mph    
Max Gust Speed 38 mph    
Visibility 9 miles    
Events      
T = Trace of Precipitation, MM = Missing Value Source: NWS Daily Summary

Daily Weather History Graph

Daily Weather History Graph

Search for Another Location

Airport or City:

Trip Planner

Search our weather history database for the weather conditions in past years. The results will help you decide how hot, cold, wet, or windy it might be!

Date:

Astronomy

Mar. 13, 2012 Rise Set
Actual Time 7:50 AM CDT 7:40 PM CDT
Civil Twilight 7:22 AM CDT 8:08 PM CDT
Nautical Twilight 6:50 AM CDT 8:40 PM CDT
Astronomical Twilight 6:17 AM CDT 9:13 PM CDT
Moon 1:19 AM CDT (3/13) 10:59 AM CDT (3/13)
Length of Visible Light 12h 46m
Length of Day
11h 50m
Waning Gibbous, 65% of the Moon is Illuminated
Mar 13
Waning Gibbous
Mar 14
Last Quarter
Mar 22
New
Mar 30
First Quarter
Apr 6
Full

Hourly Weather History & Observations

Time (CDT) Temp. Windchill Dew Point Humidity Pressure Visibility Wind Dir Wind Speed Gust Speed Precip Events Conditions
12:53 AM 36.0 °F - 30.9 °F 82% 29.95 in 10.0 mi Calm Calm - N/A   Clear
1:53 AM 37.9 °F - 33.1 °F 83% 29.95 in 10.0 mi Calm Calm - N/A   Clear
2:53 AM 36.0 °F - 30.9 °F 82% 29.95 in 10.0 mi Calm Calm - N/A   Clear
3:53 AM 33.1 °F - 30.0 °F 89% 29.94 in 10.0 mi Calm Calm - N/A   Clear
4:53 AM 35.1 °F - 32.0 °F 89% 29.92 in 10.0 mi Calm Calm - N/A   Clear
5:53 AM 34.0 °F - 32.0 °F 92% 29.92 in 10.0 mi Calm Calm - N/A   Clear
6:53 AM 37.9 °F - 35.1 °F 89% 29.92 in 10.0 mi Calm Calm - N/A   Clear
7:50 AM 32.0 °F - 30.2 °F 93% 29.91 in 1.8 mi Calm Calm - N/A   Clear
7:53 AM 30.9 °F - 30.0 °F 96% 29.95 in 1.8 mi Calm Calm - N/A   Clear
7:58 AM 30.2 °F - 30.2 °F 100% 29.91 in 3.0 mi Calm Calm - N/A   Clear
8:10 AM 30.2 °F - 30.2 °F 100% 29.92 in 2.5 mi Calm Calm - N/A   Clear
8:17 AM 32.0 °F - 30.2 °F 93% 29.92 in 5.0 mi Calm Calm - N/A   Clear
8:53 AM 35.1 °F - 33.1 °F 92% 29.95 in 10.0 mi Calm Calm - N/A   Clear
9:53 AM 45.0 °F 43.5 °F 39.0 °F 80% 29.93 in 10.0 mi ESE 3.5 mph - N/A   Clear
10:53 AM 54.0 °F - 41.0 °F 62% 29.92 in 10.0 mi Calm Calm - N/A   Clear
11:53 AM 66.0 °F - 39.0 °F 37% 29.89 in 10.0 mi SSE 8.1 mph - N/A   Clear
12:53 PM 72.0 °F - 37.9 °F 29% 29.87 in 10.0 mi South 15.0 mph - N/A   Clear
1:53 PM 73.9 °F - 37.9 °F 27% 29.83 in 10.0 mi South 19.6 mph - N/A   Clear
2:53 PM 78.1 °F - 36.0 °F 22% 29.78 in 10.0 mi South 20.7 mph 28.8 mph N/A   Clear
3:53 PM 79.0 °F - 32.0 °F 18% 29.74 in 10.0 mi South 20.7 mph 33.4 mph N/A   Clear
4:53 PM 75.9 °F - 32.0 °F 20% 29.72 in 10.0 mi South 19.6 mph 26.5 mph N/A   Clear
5:53 PM 77.0 °F - 32.0 °F 19% 29.71 in 10.0 mi South 17.3 mph 28.8 mph N/A   Clear
6:53 PM 72.0 °F - 37.9 °F 29% 29.72 in 10.0 mi South 11.5 mph - N/A   Clear
7:53 PM 66.0 °F - 37.9 °F 36% 29.72 in 10.0 mi SSE 5.8 mph - N/A   Clear
8:53 PM 63.0 °F - 37.9 °F 40% 29.72 in 10.0 mi SE 4.6 mph - N/A   Clear
9:53 PM 57.9 °F - 39.0 °F 49% 29.73 in 10.0 mi SSW 8.1 mph - N/A   Clear
10:53 PM 55.0 °F - 39.9 °F 57% 29.73 in 10.0 mi Calm Calm - N/A   Clear
11:53 PM 51.1 °F - 39.9 °F 66% 29.71 in 10.0 mi Calm Calm - N/A   Clear